Starlink 30967

operational
NORAD ID: 58416 Int'l Des: 2023-180 Owner: SPXS Country: US Constellation: starlink
LEOCIRCULAR

About Starlink 30967

Description loading...

Live Position

Loading 3D Globe...

Upcoming Passes

Altitude History

Altitude vs Time

uPlot chart will show altitude changes over time

Two-Line Element Set

1 58416U 23180Q 25300.06967973 .00000727 00000-0 68900-4 0 9998
2 58416 43.0041 62.1967 0001450 265.7676 94.3001 15.02536126107486
Epoch: Oct 27, 2025 • Age: 22 hours

Current Status

Altitude 558.5 km
Velocity 7.58 km/s
Sub-Earth Point 4.07°N, 24.36°E
Launch Date Nov 22, 2023
Age 1.9 years
Type internet

Technical Details

Classification Payload
Mass 730.00 kg
Dry Mass 700.00 kg
Total Mass 730.00 kg
Length 0.30 m
Diameter 4.10 m
Span 29.00 m
Shape Box + pan
Manufacturer SPXS
Bus Type Starlink V2M
Phase Status In Orbit
Owner/State SPXS/US

Large Constellations

Loading constellations...